Wind_Speed
39 44 49 52 56 60 64 69 71 73 72 70 65 58 53 51 50 48 47 46 44 42 40 38 36 33 32 31 32 33 34 34 34 33 33 32 30 28 25 23 22 19 16 19
41 47 51 54 58 63 66 69 72 73 70 68 60 53 49 48 47 46 46 45 44 43 42 41 39 36 35 34 35 36 37 37 37 35 34 33 32 29 25 22 21 18 16 15
45 50 55 56 61 65 68 71 75 73 71 64 55 50 47 47 47 45 44 45 45 45 45 44 42 41 39 38 38 39 40 41 41 39 37 34 33 31 28 24 21 19 18 18
48 53 55 59 62 66 70 71 72 69 64 57 52 49 47 48 48 45 45 46 47 48 48 48 47 46 45 44 44 43 43 43 43 42 40 37 35 33 31 28 25 23 21 21
52 55 57 61 65 68 72 72 71 65 57 52 49 48 47 48 46 44 45 48 50 51 52 52 52 51 51 50 49 48 47 46 45 42 40 38 36 35 33 31 29 28 26 25
53 56 59 63 66 70 73 70 66 58 52 49 47 45 44 43 42 44 47 50 53 55 55 55 55 55 55 54 53 51 50 48 46 43 40 38 36 35 35 34 32 32 31 29
55 57 59 65 68 71 71 71 65 54 47 46 45 44 45 44 45 47 51 54 56 57 57 58 58 57 57 57 56 55 53 51 48 45 43 41 38 36 35 35 35 35 35 34
57 59 61 65 68 71 71 69 58 47 44 44 44 46 47 49 50 52 54 56 57 58 59 61 61 61 61 60 58 57 56 54 51 49 47 45 43 40 38 37 37 36 37 38
57 58 62 66 69 72 72 65 52 43 42 43 46 49 51 53 54 56 57 58 60 61 62 62 60 59 56 54 52 50 49 47 47 46 46 47 47 46 44 43 41 40 39 40
57 60 63 67 69 72 70 62 49 42 42 45 48 51 54 56 58 58 60 62 62 59 55 52 51 51 51 50 50 48 45 43 40 39 38 39 42 45 47 48 47 45 44 44
57 60 63 66 69 71 69 61 50 43 43 46 50 54 56 58 59 61 62 58 52 49 49 50 51 51 51 52 52 51 48 45 41 38 36 34 33 34 38 44 50 51 51 50
57 61 63 65 69 71 69 60 50 45 45 48 52 56 58 59 61 60 54 47 46 47 48 49 50 51 52 52 52 51 49 46 42 38 36 35 34 32 32 32 36 42 49 53
58 61 63 65 69 71 67 58 49 45 47 50 53 56 58 59 58 51 44 43 44 46 47 49 51 52 54 54 54 52 50 47 44 40 37 35 34 32 30 30 30 31 35 41
58 61 62 65 69 70 64 56 49 46 47 50 53 56 57 56 50 42 41 42 44 46 47 49 51 54 56 57 57 55 52 49 47 43 40 37 34 32 29 28 27 27 27 29
58 59 61 65 69 69 63 54 48 47 48 50 53 55 55 49 41 38 39 41 44 46 48 50 52 54 57 59 59 57 54 51 49 47 44 40 37 34 32 30 28 27 26 26
57 58 61 65 69 66 58 51 47 46 48 51 53 53 49 40 36 36 37 40 42 45 48 51 53 55 58 60 61 59 57 55 54 51 48 44 40 37 34 32 31 29 28 27
56 58 61 65 67 61 53 47 45 46 48 51 51 49 41 34 34 35 37 39 43 45 49 52 55 57 59 60 61 61 58 55 53 52 51 47 43 40 37 35 32 31 29 28
55 57 61 65 64 56 49 45 44 46 49 50 49 43 34 31 31 33 36 40 43 47 50 53 56 58 60 61 63 62 58 55 54 54 52 49 44 40 37 35 33 31 30 29
55 57 60 63 59 51 46 44 45 47 49 48 45 37 30 28 29 31 35 39 42 45 48 52 55 58 61 62 63 63 61 60 59 57 55 50 46 42 38 35 32 30 28 26
54 56 59 60 55 48 44 44 45 47 48 46 41 32 27 27 28 31 35 39 43 46 48 50 53 57 60 61 64 66 65 62 60 58 56 52 48 44 40 36 32 27 24 21
53 55 58 56 50 45 43 43 45 47 46 43 36 28 25 24 26 30 35 40 43 45 47 49 52 56 60 62 66 67 64 61 60 60 58 55 51 47 43 38 33 28 22 19
52 55 56 53 47 42 41 42 45 46 44 40 32 25 23 23 27 32 36 40 42 44 46 47 50 55 60 62 64 65 62 59 59 60 61 60 57 53 49 43 38 32 26 21
51 53 53 48 43 39 40 43 45 44 42 37 28 22 21 23 27 32 36 39 40 43 45 45 48 53 57 60 62 63 62 58 56 58 60 62 63 61 58 52 46 40 34 29
50 51 49 44 39 38 40 42 44 42 40 33 25 20 19 22 27 32 36 38 40 42 43 43 45 49 53 58 60 62 62 58 54 54 56 59 61 62 62 61 58 54 49 45
48 48 46 41 37 37 39 41 42 40 37 30 22 17 18 22 26 31 34 36 38 41 41 40 41 44 49 54 59 61 61 60 56 54 55 56 57 57 58 58 59 60 59 57
47 46 43 37 34 35 37 40 40 38 34 26 18 16 17 20 25 29 32 35 37 39 39 38 38 40 44 50 55 58 59 59 58 56 54 54 54 55 54 54 53 53 53 52
45 44 39 33 32 33 36 39 38 36 31 23 15 13 15 19 23 28 31 33 36 38 38 37 37 38 41 46 50 53 56 57 58 58 57 54 52 52 52 52 52 51 50 49
Wind_Direction
331 330 331 332 330 329 329 329 331 332 332 331 329 329 331 334 336 335 334 334 335 337 339 340 338 335 331 329 328 327 326 322 319 315 311 307 305 306 311 312 312 305 285 259
333 331 332 333 332 331 330 331 334 335 334 333 333 333 335 336 337 336 335 336 337 338 338 338 337 334 330 326 323 321 320 319 317 314 310 305 301 299 300 302 304 300 283 266
334 332 334 335 335 332 331 335 337 337 337 337 336 334 335 337 337 335 335 337 338 338 338 337 334 332 328 324 320 316 314 313 313 312 309 304 297 293 291 289 288 289 281 271
334 334 335 337 334 334 335 337 339 339 340 339 335 333 333 334 334 333 335 336 336 335 334 333 331 329 326 323 319 315 312 310 309 307 306 303 297 290 285 280 276 274 272 269
334 334 336 337 336 335 335 338 340 340 342 342 341 338 335 333 334 334 333 333 332 331 330 328 327 325 322 319 317 314 311 308 306 303 301 300 296 290 283 276 270 265 265 264
334 334 336 337 336 335 336 339 341 342 345 347 348 346 342 339 336 333 331 330 328 327 325 324 322 320 318 315 313 311 308 306 304 300 297 295 293 288 283 277 270 262 259 258
335 335 336 337 336 336 337 340 342 343 346 349 349 347 345 341 337 334 331 328 327 325 323 321 320 318 316 313 311 308 305 302 299 296 292 290 287 285 280 275 270 263 258 255
335 335 336 336 335 337 338 340 341 343 347 348 348 346 343 340 337 334 331 329 328 326 324 322 320 318 316 315 312 310 306 302 298 293 288 284 281 278 275 272 267 264 258 254
334 334 334 335 336 337 340 341 341 341 345 346 345 344 342 339 337 335 334 332 330 327 326 325 326 327 327 326 325 321 317 311 305 297 289 282 277 272 269 266 264 261 258 254
333 334 334 335 336 337 341 341 337 336 339 342 342 342 341 339 338 336 335 332 331 332 336 340 343 344 343 342 340 337 333 328 322 316 307 297 285 275 268 264 260 258 256 254
334 334 334 335 335 338 341 339 334 331 334 338 340 340 339 339 338 337 336 337 341 348 352 353 353 352 351 350 348 346 344 340 335 330 325 319 309 296 283 272 264 258 255 253
333 334 333 334 335 339 341 339 333 330 332 335 338 339 339 339 339 339 341 348 354 356 357 356 356 356 355 354 353 351 350 347 344 340 336 332 327 318 306 293 280 269 261 256
334 333 332 333 336 339 340 338 333 330 331 334 337 339 339 340 341 344 350 356 358 358 358 360 1 1 360 358 357 355 354 352 350 347 343 338 334 330 323 314 302 289 276 267
333 332 332 334 337 339 339 337 334 332 333 336 338 339 340 341 345 351 356 358 359 359 1 1 2 2 1 1 360 359 357 356 354 351 347 342 339 336 332 329 322 313 300 286
332 332 333 335 337 339 339 338 336 335 336 338 339 340 342 345 350 356 359 1 2 3 3 2 1 1 2 2 1 360 359 359 358 354 349 345 341 338 335 333 330 326 320 311
331 332 334 336 338 339 340 338 338 338 339 339 340 341 344 349 354 359 1 3 4 3 3 2 1 1 2 2 1 0 359 359 358 355 351 347 342 338 334 330 328 324 321 318
330 333 335 337 339 339 339 339 340 340 340 340 341 343 347 352 358 1 1 2 2 3 4 3 3 3 2 1 1 1 0 359 357 355 352 348 342 337 333 328 323 319 316 313
330 333 335 337 339 339 339 340 340 340 340 341 343 346 350 356 1 2 3 3 3 3 4 4 4 3 3 3 3 2 1 360 359 358 355 350 345 340 335 329 323 316 311 308
331 333 335 337 338 338 340 340 340 340 341 342 345 348 352 358 2 4 4 4 3 3 3 4 4 4 4 4 3 3 4 4 3 0 357 355 351 348 343 337 330 322 313 307
330 332 335 337 338 338 339 340 340 341 343 344 346 349 353 359 2 3 3 3 2 2 3 4 4 6 6 5 6 7 8 7 6 4 3 2 360 357 353 348 343 336 327 318
329 332 336 337 337 338 339 339 341 342 344 345 347 350 356 1 3 3 2 1 2 3 4 4 6 7 7 8 10 10 11 12 12 12 13 12 11 8 5 2 359 354 348 339
328 333 336 337 337 337 339 340 341 343 344 346 348 351 357 2 3 3 2 1 2 4 5 6 9 10 11 12 13 13 15 17 18 20 22 23 22 21 19 17 15 13 9 3
328 333 335 336 336 337 339 341 343 344 345 347 349 353 359 2 2 2 0 1 4 6 7 8 11 13 14 15 15 16 18 20 22 25 29 30 31 31 31 31 31 30 30 30
329 333 334 334 335 337 340 342 344 345 345 348 349 354 359 0 2 2 2 4 7 8 8 10 14 16 16 17 18 19 21 22 24 27 30 32 34 36 38 41 44 46 48 51
329 332 333 333 334 336 339 342 344 344 344 347 348 354 359 2 3 3 5 8 10 9 9 12 15 16 17 17 19 22 23 24 25 29 32 33 34 36 39 43 47 51 54 57
329 331 331 331 332 335 340 342 344 344 344 345 347 354 1 4 5 7 9 11 11 10 10 12 14 15 16 17 19 22 25 25 27 30 33 34 35 37 39 42 45 48 51 54
329 330 329 329 331 336 340 342 344 343 343 343 344 354 2 5 7 9 11 12 11 10 11 13 13 13 15 17 19 22 25 26 28 31 34 35 36 37 39 42 44 46 48 51
Height
5788 5778 5769 5760 5750 5738 5724 5709 5695 5679 5661 5646 5631 5619 5609 5598 5588 5578 5569 5560 5551 5543 5534 5526 5518 5511 5505 5499 5493 5487 5481 5476 5470 5464 5458 5453 5447 5443 5437 5431 5427 5422 5419 5419
5782 5771 5761 5751 5740 5727 5713 5699 5684 5668 5654 5638 5623 5612 5603 5593 5583 5573 5564 5555 5546 5537 5529 5521 5513 5506 5500 5493 5487 5480 5474 5468 5462 5456 5450 5444 5439 5435 5431 5426 5422 5419 5416 5415
5774 5763 5752 5742 5730 5717 5703 5686 5672 5657 5643 5626 5614 5605 5596 5587 5577 5568 5558 5549 5540 5531 5523 5515 5507 5499 5492 5486 5479 5472 5465 5458 5452 5446 5441 5435 5430 5426 5423 5419 5416 5414 5411 5411
5765 5755 5743 5736 5721 5707 5691 5676 5660 5645 5631 5617 5606 5597 5589 5580 5571 5562 5553 5543 5534 5525 5517 5508 5500 5491 5483 5476 5469 5462 5455 5448 5441 5435 5430 5424 5420 5416 5413 5411 5408 5406 5405 5404
5756 5745 5735 5724 5710 5696 5682 5669 5653 5638 5626 5614 5603 5592 5582 5573 5564 5555 5546 5537 5528 5518 5509 5500 5490 5482 5473 5465 5457 5449 5442 5435 5428 5422 5417 5412 5408 5404 5402 5400 5398 5397 5397 5396
5746 5735 5725 5716 5702 5687 5673 5660 5644 5630 5619 5608 5598 5589 5580 5568 5559 5550 5541 5531 5521 5511 5500 5490 5481 5471 5461 5452 5444 5436 5428 5421 5414 5409 5403 5399 5395 5392 5389 5387 5386 5386 5386 5386
5737 5726 5716 5705 5693 5679 5667 5655 5638 5624 5613 5602 5592 5582 5573 5564 5554 5545 5535 5524 5513 5502 5490 5479 5469 5458 5448 5438 5429 5420 5412 5405 5399 5393 5389 5384 5381 5378 5375 5373 5372 5372 5373 5373
5728 5717 5710 5696 5684 5672 5659 5642 5628 5617 5607 5597 5588 5578 5569 5559 5549 5538 5528 5516 5504 5492 5479 5467 5455 5444 5433 5423 5412 5403 5394 5386 5380 5375 5371 5367 5364 5362 5359 5358 5357 5358 5359 5360
5721 5712 5700 5688 5675 5662 5648 5635 5622 5612 5603 5593 5584 5574 5564 5554 5543 5531 5519 5507 5494 5481 5468 5455 5442 5430 5419 5408 5397 5387 5377 5368 5361 5354 5350 5347 5344 5343 5342 5340 5340 5342 5343 5344
5713 5702 5691 5679 5667 5653 5640 5627 5617 5608 5599 5589 5579 5570 5559 5548 5536 5524 5511 5498 5485 5471 5459 5446 5434 5423 5411 5399 5388 5377 5366 5357 5348 5340 5333 5328 5325 5323 5322 5321 5321 5323 5324 5326
5706 5695 5684 5672 5660 5647 5634 5622 5612 5603 5593 5584 5575 5564 5553 5542 5529 5516 5503 5489 5476 5465 5454 5443 5431 5420 5408 5395 5383 5370 5359 5348 5339 5331 5323 5317 5311 5306 5303 5302 5301 5303 5305 5307
5700 5689 5679 5667 5654 5641 5628 5616 5606 5597 5588 5579 5569 5559 5547 5535 5522 5509 5496 5484 5474 5463 5453 5442 5430 5418 5406 5393 5380 5368 5356 5344 5334 5325 5317 5310 5302 5296 5290 5287 5284 5283 5284 5286
5692 5682 5671 5660 5647 5634 5622 5610 5600 5591 5583 5574 5564 5553 5541 5529 5517 5504 5492 5482 5473 5464 5453 5442 5430 5417 5405 5392 5379 5366 5353 5342 5331 5321 5313 5305 5297 5290 5283 5276 5272 5269 5267 5266
5684 5674 5664 5652 5640 5628 5615 5604 5595 5587 5578 5569 5559 5547 5535 5523 5511 5500 5491 5482 5473 5463 5452 5441 5429 5417 5404 5391 5377 5364 5352 5339 5328 5318 5309 5300 5292 5285 5277 5271 5265 5259 5255 5252
5677 5667 5657 5646 5634 5622 5610 5599 5590 5582 5573 5564 5553 5542 5531 5519 5509 5500 5491 5482 5472 5462 5452 5441 5429 5417 5404 5391 5377 5363 5351 5338 5326 5315 5305 5296 5287 5279 5271 5265 5258 5252 5247 5243
5669 5660 5649 5639 5628 5615 5604 5594 5585 5577 5568 5558 5548 5538 5527 5516 5508 5499 5491 5483 5473 5463 5453 5441 5430 5418 5404 5391 5377 5363 5348 5335 5323 5312 5301 5290 5281 5272 5265 5258 5251 5245 5240 5235
5661 5652 5642 5632 5621 5610 5599 5589 5581 5573 5564 5554 5544 5534 5523 5514 5507 5499 5491 5483 5474 5463 5453 5442 5429 5417 5405 5391 5377 5362 5348 5335 5322 5309 5296 5284 5274 5264 5256 5249 5243 5237 5232 5227
5655 5645 5636 5626 5616 5605 5595 5586 5578 5569 5560 5550 5540 5530 5521 5514 5507 5500 5492 5483 5473 5463 5453 5442 5430 5418 5406 5392 5376 5362 5348 5335 5320 5306 5293 5280 5268 5258 5248 5240 5233 5227 5222 5218
5649 5640 5631 5621 5610 5599 5591 5583 5574 5565 5556 5546 5537 5528 5521 5514 5508 5501 5493 5485 5476 5466 5455 5444 5433 5420 5406 5392 5379 5364 5347 5330 5316 5303 5289 5276 5263 5251 5241 5232 5224 5218 5213 5209
5642 5633 5624 5614 5603 5594 5586 5578 5570 5561 5552 5542 5534 5526 5520 5514 5507 5501 5493 5485 5476 5466 5456 5446 5435 5422 5409 5396 5380 5361 5345 5331 5317 5303 5289 5274 5261 5249 5237 5227 5218 5211 5206 5202
5636 5627 5618 5608 5598 5590 5582 5575 5567 5558 5548 5540 5532 5525 5520 5514 5508 5501 5494 5486 5477 5468 5458 5448 5436 5425 5412 5396 5380 5365 5350 5336 5321 5307 5291 5276 5263 5249 5237 5226 5216 5208 5202 5198
5629 5621 5611 5602 5594 5586 5579 5571 5563 5554 5546 5538 5530 5525 5520 5514 5508 5502 5494 5487 5478 5469 5460 5450 5439 5427 5414 5400 5386 5372 5357 5342 5329 5314 5299 5284 5269 5255 5241 5229 5218 5210 5203 5197
5622 5614 5605 5596 5589 5583 5575 5568 5560 5551 5543 5536 5529 5524 5519 5514 5509 5502 5496 5488 5479 5470 5461 5451 5441 5431 5419 5406 5393 5380 5365 5350 5338 5324 5309 5295 5280 5265 5251 5238 5227 5216 5208 5201
5615 5607 5599 5591 5585 5579 5572 5564 5556 5548 5541 5534 5528 5524 5520 5515 5509 5503 5496 5488 5480 5471 5462 5454 5445 5435 5425 5414 5401 5387 5373 5360 5347 5334 5321 5308 5294 5281 5268 5255 5242 5231 5221 5213
5608 5600 5593 5586 5581 5575 5568 5560 5553 5546 5539 5532 5527 5523 5519 5515 5510 5503 5497 5489 5481 5474 5465 5457 5449 5440 5430 5420 5408 5395 5382 5369 5356 5343 5331 5319 5308 5296 5285 5273 5262 5251 5242 5234
5601 5594 5588 5582 5577 5571 5564 5557 5550 5543 5537 5531 5526 5523 5519 5515 5510 5504 5497 5490 5483 5476 5468 5460 5453 5445 5436 5426 5415 5403 5391 5380 5368 5354 5342 5331 5321 5310 5300 5289 5279 5270 5262 5254
5595 5588 5582 5577 5572 5567 5560 5554 5547 5541 5535 5529 5525 5522 5519 5515 5510 5505 5499 5492 5486 5479 5472 5464 5456 5449 5441 5432 5422 5412 5401 5390 5379 5367 5354 5343 5333 5324 5314 5305 5296 5287 5279 5272